Weather in Braguny

Russia / Chechen Republic     43°26′23″N   46°05′40″E
temp.,
°C
wind,
m/s
gust,
m/s
humid.,
%
clouds,
%
prec.,
mm/h
press.,
hPa
HPBL,
m
17 april, sat
sat1700:00+11e23603 0.0 101851
03:00+10e226553 0.0 101828
06:00+11ese22686 0.0 101727
09:00+18ene225096 0.0 1017431
12:00+23nw443886 0.0 10181368
15:00+23wnw5536100 0.0 10181867
18:00+20nw61046100 0.0 1019529
21:00+16wnw4762100 0.0 1021528
18 april, sun
sun1800:00+14nw4769100 0.0 1021312
03:00+13nnw3579100 0.0 1021326
06:00+12n1284100 0.0 1020169
09:00+15ene3364100 0.0 1019805
12:00+20ene44458 0.0 10171220
15:00+21ene444187 0.1 10171650
18:00+18ene465799 0.1 1018365
21:00+14e2370100 0.6 1019115
19 april, mon
mon1900:00+12e3477100 0.0 1017115
03:00+11e3676100 0.0 1017145
06:00+11e2571100 0.0 1017150
09:00+17e355299 0.0 1017457
12:00+22e554377 0.0 1015821
15:00+23e774140 0.0 1013952
18:00+18e695465 0.0 1014411
21:00+13ene3768100 0.0 1015232
20 april, tue
tue2000:00+11e3876100 0.0 1015256
03:00+11e51077100 0.0 1012255
06:00+12ese41069100 0.0 1010310
09:00+19ese5753100 0.0 1007438
12:00+25e8940100 0.0 1004686
15:00+22e7950100 0.0 1004518
18:00+16e51167100 0.0 1004364
21:00+14n3477100 0.2 1007167
21 april, wed
wed2100:00+14w4982100 0.3 1011380
03:00+14wnw7128253 0.3 1014579
06:00+14w5883100 0.0 1016529
09:00+17wnw786482 0.0 10171107
12:00+17wnw7862100 0.1 10181146
15:00+15w6764100 0.2 1019948
18:00+14w5671100 0.4 1021589
21:00+13w4778100 1.3 1021352